Flag for Namibia Weather past 2 weeks in Swakopmund, Namibia

Now
63 °F

Mild.


Feels Like: 63 °F
Forecast: 58 / 72 °F
Wind: 6 mph from West

Location: Walvis Bay

Current Time: Dec 18, 2014 at 9:58:43 PM

Latest Report: Dec 18, 2014 at 9:00 PM


Visibility: N/A

Pressure: 30.04 "Hg

Humidity: 68%

Dew point: 52 °F

Location of SwakopmundLocation

Historic Weather in Swakopmund — Graph

°F

Swakopmund temperature yesterday

Maximum temperature yesterday: 66 °F (at 12:00 PM)
Minimum temperature yesterday: 57 °F (at 12:00 AM)
Average temperature yesterday: 60 °F

Past Weeks' High & Low Weather Summary

 TemperatureHumidityPressure
High79 °F (Dec 7, 3:00 PM)94% (Dec 5, 4:00 AM)30.01 "Hg (Dec 5, 4:00 AM)
Low54 °F (Dec 5, 4:00 AM)39% (Dec 5, 3:00 PM)29.83 "Hg (Dec 5, 5:00 PM)
Average61 °F74%29.95 "Hg
* Reported Dec 3 8:00 PM — Dec 18 8:00 PM, Swakopmund, Weather by CustomWeather, © 2014

Note: Actual official high and low records may vary slightly from our data, if they occured in-between our weather recording intervals... More about our weather records

Advertising

Swakopmund weather history for previous 24 hours

 ConditionsComfort  
Time TempWeatherWind HumidityBarometerVisibility
8:00 PM
Dec 18
64 °FMild.7 mph64%30.01 "HgN/A
7:00 PM68 °FSunny.8 mph56%29.98 "Hg10 mi
6:00 PM70 °FSunny.9 mph53%29.98 "Hg10 mi
5:00 PM70 °FSunny.10 mph53%29.95 "Hg10 mi
4:00 PM72 °FSunny.10 mph50%29.98 "Hg10 mi
3:00 PM72 °FMild.12 mph50%29.98 "HgN/A
2:00 PM72 °FSunny.7 mph50%29.98 "Hg10 mi
1:00 PM70 °FSunny.8 mph53%30.01 "Hg10 mi
12:00 PM68 °FSunny.6 mph56%30.01 "Hg10 mi
11:00 AM66 °FPassing clouds.3 mph60%30.01 "HgN/A
10:00 AM63 °FMild.5 mph73%30.01 "HgN/A
9:00 AM61 °FOvercast.6 mph77%30.01 "HgN/A
8:00 AM61 °FOvercast.6 mph77%30.01 "HgN/A
7:00 AM59 °FOvercast.6 mph77%29.98 "HgN/A
6:00 AM59 °FOvercast.6 mph77%29.95 "HgN/A
5:00 AM55 °FCool.6 mph88%29.95 "HgN/A
4:00 AM57 °FCool.7 mph82%29.95 "HgN/A
3:00 AM59 °FCool.8 mph82%29.98 "HgN/A
2:00 AM59 °FCool.7 mph82%29.98 "HgN/A
1:00 AM59 °FCool.5 mph82%30.01 "HgN/A
12:00 AM59 °FCool.5 mph82%30.01 "HgN/A
11:00 PM
Dec 17
57 °FCool.3 mph82%30.01 "HgN/A
10:00 PM59 °FCool.7 mph82%30.01 "HgN/A
9:00 PM61 °FCool.7 mph77%29.98 "HgN/A
Weather by CustomWeather, © 2014

See weather overviewHow to use our weather pages